This is the latest recevied weather packets stored in our database for station/object KO5MO-4. If no packets are shown the sender has not sent any weather packets the latest 10 day(s).
| Time | Temp. | Humidity | Pressure | Rain* | Wind** | Luminosity | Snow |
|---|---|---|---|---|---|---|---|
| 1777262166 | 20.56° C | 29% | 1008.6 hPa | 0 mm | - | - | - |
| 1777261266 | 21.11° C | 29% | 1008.5 hPa | 0 mm | - | - | - |
| 1777260366 | 21.11° C | 29% | 1008.3 hPa | 0 mm | - | - | - |
| 1777259766 | 21.11° C | 29% | 1008.2 hPa | 0 mm | - | - | - |
| 1777259166 | 21.11° C | 29% | 1008.1 hPa | 0 mm | - | - | - |
| 1777258866 | 21.11° C | 29% | 1008.1 hPa | 0 mm | - | - | - |
| 1777258566 | 21.11° C | 29% | 1008 hPa | 0 mm | - | - | - |
| 1777258266 | 21.67° C | 29% | 1008 hPa | 0 mm | - | - | - |
| 1777257966 | 21.67° C | 28% | 1007.9 hPa | 0 mm | - | - | - |
| 1777257066 | 21.67° C | 28% | 1007.8 hPa | 0 mm | - | - | - |
| 1777256466 | 21.67° C | 28% | 1007.6 hPa | 0 mm | - | - | - |
| 1777256166 | 21.67° C | 28% | 1007.6 hPa | 0 mm | - | - | - |
| 1777254666 | 22.22° C | 26% | 1007.5 hPa | 0 mm | - | - | - |
| 1777253766 | 23.33° C | 26% | 1007.4 hPa | 0 mm | - | - | - |
| 1777253466 | 23.33° C | 26% | 1007.3 hPa | 0 mm | - | - | - |
| 1777253166 | 23.33° C | 26% | 1007.3 hPa | 0 mm | - | - | - |
| 1777252566 | 23.89° C | 25% | 1007.3 hPa | 0 mm | - | - | - |
| 1777251366 | 24.44° C | 25% | 1007.2 hPa | 0 mm | - | - | - |
| 1777250466 | 24.44° C | 24% | 1007.2 hPa | 0 mm | - | - | - |
| 1777249866 | 25° C | 24% | 1007.2 hPa | 0 mm | - | - | - |
| 1777248666 | 25.56° C | 24% | 1007.1 hPa | 0 mm | - | - | - |
| 1777248066 | 25.56° C | 24% | 1007.1 hPa | 0 mm | - | - | - |
| 1777247166 | 25.56° C | 24% | 1007.1 hPa | 0 mm | - | - | - |
| 1777247127 | 25.56° C | 23% | 1007.2 hPa | 0 mm | - | - | - |
| 1777246827 | 26.11° C | 23% | 1007.1 hPa | 0 mm | - | - | - |
* Rain latest hour (hover to see other rain measurements)
** Current wind speed in m/s (hover to see current wind gust speed)